BEIDOU-2 IGSO-6

Last updated on Wed Nov 20 2024 00:02:41 GMT+0000 (Coordinated Universal Time)

1 41434U 16021A 24323.70275638 -.00000181 00000+0 00000+0 0 9997 2 41434 59.4091 43.7977 0054821 224.9026 138.8501 1.00284607 31714
UTC large
Height (km)
Speed (km/s)
/
Latitude / Longitude
Inclination (degrees)
Orbital Period (minutes)
Azimuth
Elevation
Range (km)
Doppler Factor

Next 0 passes for location: London (51.5072 / 0.1276)

Sorry there are no passes over London.